EAG5507 LFPG-LIMC

Flight info

Callsign EAG5507
Flight time 1h 16m
Altitude 35000
Route OKASI DCT OKEKO DCT MOU DCT MADIV DCT MOKIP DCT TUFTA DCT GEVEA/N0470F290 DCT MOBLO DCT LURAG DCT TOP/N0425F190 M135 ASTIG
Aircraft A306/H-SDE3FGHIRWY/LB1

Departure

Time 2026-05-05 23:43
Airport Charles de Gaulle International Airport (LFPG)

Arrival

Time 2026-05-06 00:59
Airport Milan Malpensa International Airport (LIMC)
Time Latitude Longitude Altitude Speed Heading
2026-05-05 23:33 48.99982 2.55908 369 ft 0 kts 143°
2026-05-05 23:34 48.99995 2.55894 363 ft 2 kts 152°
2026-05-05 23:34 49.00010 2.55884 362 ft 2 kts 163°
2026-05-05 23:35 49.00026 2.55879 360 ft 2 kts 179°
2026-05-05 23:35 49.00043 2.55882 362 ft 2 kts 199°
2026-05-05 23:35 49.00057 2.55893 360 ft 2 kts 219°
2026-05-05 23:35 49.00068 2.55911 365 ft 2 kts 237°
2026-05-05 23:36 49.00075 2.55929 360 ft 1 kts 253°
2026-05-05 23:36 49.00076 2.55934 360 ft 0 kts 258°
2026-05-05 23:38 49.00075 2.55930 360 ft 1 kts 258°
2026-05-05 23:38 49.00073 2.55896 360 ft 7 kts 266°
2026-05-05 23:39 49.00073 2.55784 368 ft 11 kts 270°
2026-05-05 23:39 49.00070 2.55701 365 ft 5 kts 250°
2026-05-05 23:39 49.00030 2.55672 364 ft 9 kts 191°
2026-05-05 23:39 48.99960 2.55692 364 ft 11 kts 149°
2026-05-05 23:40 48.99898 2.55781 368 ft 11 kts 148°
2026-05-05 23:40 48.99842 2.55798 366 ft 6 kts 177°
2026-05-05 23:40 48.99817 2.55800 367 ft 1 kts 177°
2026-05-05 23:40 48.99801 2.55802 366 ft 4 kts 177°
2026-05-05 23:41 48.99755 2.55804 365 ft 9 kts 178°
2026-05-05 23:41 48.99685 2.55816 362 ft 9 kts 171°
2026-05-05 23:41 48.99630 2.55833 366 ft 9 kts 165°
2026-05-05 23:41 48.99605 2.55953 360 ft 19 kts 86°
2026-05-05 23:42 48.99628 2.56378 368 ft 70 kts 85°
2026-05-05 23:42 48.99684 2.57409 357 ft 123 kts 86°
2026-05-05 23:42 48.99765 2.58937 364 ft 166 kts 85°
2026-05-05 23:42 48.99839 2.60809 776 ft 182 kts 83°
2026-05-05 23:43 48.99930 2.62736 1653 ft 182 kts 78°
2026-05-05 23:43 49.00046 2.64653 2461 ft 188 kts 80°
2026-05-05 23:43 49.00177 2.66766 2873 ft 214 kts 81°
2026-05-05 23:43 49.00314 2.69156 3215 ft 238 kts 82°
2026-05-05 23:44 49.00455 2.71757 3833 ft 253 kts 82°
2026-05-05 23:44 49.00597 2.74427 4665 ft 261 kts 83°
2026-05-05 23:44 49.00713 2.77235 5478 ft 270 kts 88°
2026-05-05 23:44 49.00544 2.80112 6366 ft 276 kts 97°
2026-05-05 23:45 49.00239 2.83016 7234 ft 279 kts 99°
2026-05-05 23:45 48.99917 2.85942 8206 ft 282 kts 100°
2026-05-05 23:45 48.99594 2.88907 9181 ft 285 kts 100°
2026-05-05 23:45 48.99270 2.91910 10043 ft 290 kts 101°
2026-05-05 23:46 48.98930 2.95016 10557 ft 307 kts 102°
2026-05-05 23:46 48.98208 2.98155 10933 ft 322 kts 123°
2026-05-05 23:46 48.96621 3.00543 11563 ft 326 kts 150°
2026-05-05 23:46 48.94472 3.01554 12282 ft 327 kts 178°
2026-05-05 23:47 48.92254 3.00965 13052 ft 327 kts 204°
2026-05-05 23:47 48.90277 2.99266 13822 ft 328 kts 213°
2026-05-05 23:47 48.88351 2.97375 14501 ft 331 kts 213°
2026-05-05 23:47 48.86398 2.95476 15091 ft 336 kts 212°
2026-05-05 23:48 48.84392 2.93568 15659 ft 342 kts 212°
2026-05-05 23:48 48.82362 2.91667 16336 ft 345 kts 211°
2026-05-05 23:48 48.80310 2.89760 17029 ft 346 kts 211°
2026-05-05 23:48 48.78238 2.87846 17579 ft 352 kts 211°
2026-05-05 23:49 48.76152 2.85925 18123 ft 357 kts 211°
2026-05-05 23:49 48.74017 2.83964 18658 ft 360 kts 211°
2026-05-05 23:49 48.71860 2.81985 19165 ft 364 kts 210°
2026-05-05 23:49 48.69681 2.79989 19640 ft 369 kts 210°
2026-05-05 23:50 48.67470 2.77966 20118 ft 373 kts 210°
2026-05-05 23:50 48.65238 2.75926 20626 ft 377 kts 210°
2026-05-05 23:50 48.62982 2.73866 21121 ft 381 kts 210°
2026-05-05 23:50 48.60698 2.71783 21662 ft 384 kts 210°
2026-05-05 23:51 48.58406 2.69695 22201 ft 387 kts 210°
2026-05-05 23:51 48.56085 2.67583 22680 ft 392 kts 209°
2026-05-05 23:51 48.53730 2.65443 23166 ft 395 kts 210°
2026-05-05 23:51 48.51382 2.63350 23646 ft 398 kts 207°
2026-05-05 23:52 48.48818 2.61778 24032 ft 400 kts 192°
2026-05-05 23:52 48.46061 2.61291 24438 ft 400 kts 178°
2026-05-05 23:52 48.43278 2.61422 24863 ft 402 kts 175°
2026-05-05 23:52 48.40475 2.61651 25277 ft 404 kts 175°
2026-05-05 23:53 48.37665 2.61881 25733 ft 405 kts 175°
2026-05-05 23:53 48.34837 2.62102 26114 ft 409 kts 175°
2026-05-05 23:53 48.31985 2.62322 26483 ft 412 kts 175°
2026-05-05 23:53 48.29132 2.62821 26839 ft 413 kts 167°
2026-05-05 23:54 48.26377 2.64039 27215 ft 413 kts 156°
2026-05-05 23:54 48.23770 2.65870 27574 ft 414 kts 151°
2026-05-05 23:54 48.21200 2.67853 27935 ft 416 kts 150°
2026-05-05 23:54 48.18620 2.69859 28301 ft 419 kts 151°
2026-05-05 23:55 48.16025 2.71866 28678 ft 420 kts 151°
2026-05-05 23:55 48.13451 2.73847 29005 ft 423 kts 151°
2026-05-05 23:55 48.10823 2.75863 29327 ft 425 kts 151°
2026-05-05 23:55 48.08171 2.77869 29672 ft 428 kts 152°
2026-05-05 23:56 48.05452 2.79751 29848 ft 433 kts 154°
2026-05-05 23:56 48.02663 2.81553 29989 ft 439 kts 155°
2026-05-05 23:56 47.99823 2.83326 30110 ft 444 kts 155°
2026-05-05 23:56 47.96954 2.85103 30243 ft 449 kts 156°
2026-05-05 23:57 47.94054 2.86903 30367 ft 453 kts 156°
2026-05-05 23:57 47.91130 2.88729 30493 ft 457 kts 156°
2026-05-05 23:57 47.88192 2.90575 30677 ft 458 kts 156°
2026-05-05 23:57 47.85299 2.92400 30964 ft 458 kts 156°
2026-05-05 23:58 47.82367 2.94251 31274 ft 457 kts 156°
2026-05-05 23:58 47.79438 2.96100 31586 ft 455 kts 157°
2026-05-05 23:58 47.76541 2.97927 32102 ft 449 kts 158°
2026-05-05 23:58 47.73671 2.99737 32429 ft 448 kts 158°
2026-05-05 23:59 47.70793 3.01548 32638 ft 450 kts 158°
2026-05-05 23:59 47.67908 3.03361 32861 ft 451 kts 158°
2026-05-05 23:59 47.65022 3.05171 33139 ft 451 kts 158°
2026-05-05 23:59 47.62129 3.06984 33402 ft 451 kts 158°
2026-05-06 00:00 47.59239 3.08792 33681 ft 451 kts 158°
2026-05-06 00:00 47.56350 3.10599 33938 ft 450 kts 158°
2026-05-06 00:00 47.53462 3.12402 34161 ft 450 kts 158°
2026-05-06 00:00 47.50573 3.14203 34370 ft 451 kts 159°
2026-05-06 00:01 47.47718 3.15980 34583 ft 451 kts 159°
2026-05-06 00:01 47.44828 3.17776 34802 ft 451 kts 159°
2026-05-06 00:01 47.39030 3.21374 34861 ft 452 kts 159°
2026-05-06 00:02 47.33237 3.24961 34868 ft 452 kts 159°
2026-05-06 00:02 47.27427 3.28551 34866 ft 452 kts 159°
2026-05-06 00:03 47.21619 3.32129 34878 ft 452 kts 159°
2026-05-06 00:03 47.15824 3.35690 34870 ft 451 kts 159°
2026-05-06 00:04 47.10064 3.39225 34879 ft 451 kts 159°
2026-05-06 00:04 47.04285 3.42762 34861 ft 450 kts 159°
2026-05-06 00:05 46.95620 3.48047 34871 ft 450 kts 159°
2026-05-06 00:06 46.89844 3.51561 34885 ft 449 kts 160°
2026-05-06 00:06 46.84086 3.55056 34881 ft 447 kts 160°
2026-05-06 00:07 46.78365 3.58623 34882 ft 448 kts 155°
2026-05-06 00:07 46.73248 3.63883 34888 ft 455 kts 138°
2026-05-06 00:08 46.69578 3.71443 34889 ft 464 kts 117°
2026-05-06 00:08 46.67609 3.80438 34887 ft 468 kts 107°
2026-05-06 00:09 46.66094 3.89580 34888 ft 469 kts 106°
2026-05-06 00:09 46.64581 3.98833 34887 ft 469 kts 107°
2026-05-06 00:10 46.63012 4.08056 34881 ft 469 kts 107°
2026-05-06 00:10 46.61409 4.17265 34885 ft 469 kts 108°
2026-05-06 00:11 46.59804 4.26402 34887 ft 469 kts 108°
2026-05-06 00:11 46.58183 4.35591 34885 ft 469 kts 108°
2026-05-06 00:12 46.56557 4.44771 34878 ft 469 kts 108°
2026-05-06 00:12 46.54924 4.53954 34891 ft 469 kts 108°
2026-05-06 00:13 46.53284 4.63128 34888 ft 469 kts 108°
2026-05-06 00:13 46.51636 4.72299 34890 ft 469 kts 108°
2026-05-06 00:14 46.49982 4.81458 34887 ft 469 kts 108°
2026-05-06 00:14 46.48329 4.90561 34883 ft 470 kts 109°
2026-05-06 00:15 46.46657 4.99726 34892 ft 470 kts 109°
2026-05-06 00:15 46.44975 5.08897 34890 ft 471 kts 109°
2026-05-06 00:16 46.43283 5.18095 34893 ft 472 kts 109°
2026-05-06 00:16 46.41582 5.27299 34893 ft 473 kts 109°
2026-05-06 00:17 46.39868 5.36525 34893 ft 474 kts 109°
2026-05-06 00:17 46.38148 5.45756 34892 ft 474 kts 109°
2026-05-06 00:18 46.36430 5.54983 34901 ft 474 kts 109°
2026-05-06 00:18 46.34719 5.64137 34894 ft 475 kts 109°
2026-05-06 00:19 46.32971 5.73437 34903 ft 476 kts 109°
2026-05-06 00:19 46.31235 5.82631 34909 ft 477 kts 109°
2026-05-06 00:20 46.29479 5.91880 34910 ft 477 kts 109°
2026-05-06 00:20 46.28001 5.99625 34912 ft 477 kts 109°
2026-05-06 00:21 46.26069 6.08726 34909 ft 474 kts 117°
2026-05-06 00:21 46.22640 6.16675 34912 ft 461 kts 137°
2026-05-06 00:22 46.18113 6.23196 34912 ft 458 kts 142°
2026-05-06 00:22 46.13441 6.29374 34908 ft 458 kts 143°
2026-05-06 00:23 46.08724 6.35564 34906 ft 458 kts 142°
2026-05-06 00:23 46.04026 6.41779 34907 ft 458 kts 142°
2026-05-06 00:24 45.99339 6.48003 34906 ft 459 kts 142°
2026-05-06 00:24 45.94650 6.54228 34904 ft 457 kts 143°
2026-05-06 00:25 45.90006 6.60366 34905 ft 456 kts 143°
2026-05-06 00:25 45.85333 6.66526 34905 ft 456 kts 143°
2026-05-06 00:26 45.80659 6.72673 34910 ft 456 kts 143°
2026-05-06 00:26 45.75968 6.78808 34909 ft 456 kts 144°
2026-05-06 00:27 45.71278 6.84922 34909 ft 455 kts 144°
2026-05-06 00:27 45.66596 6.91004 34920 ft 454 kts 144°
2026-05-06 00:28 45.61912 6.97079 34919 ft 455 kts 144°
2026-05-06 00:28 45.57227 7.03138 34918 ft 454 kts 144°
2026-05-06 00:29 45.52538 7.09198 34927 ft 455 kts 145°
2026-05-06 00:29 45.47884 7.15231 34933 ft 455 kts 145°
2026-05-06 00:30 45.43199 7.21315 34936 ft 455 kts 145°
2026-05-06 00:30 45.38510 7.27383 34949 ft 455 kts 145°
2026-05-06 00:31 45.33819 7.33444 34944 ft 455 kts 146°
2026-05-06 00:31 45.29140 7.39488 34955 ft 454 kts 146°
2026-05-06 00:32 45.24452 7.45513 34953 ft 454 kts 146°
2026-05-06 00:32 45.19796 7.51484 34939 ft 454 kts 146°
2026-05-06 00:33 45.15105 7.57483 34929 ft 454 kts 146°
2026-05-06 00:33 45.10409 7.63485 34925 ft 453 kts 146°
2026-05-06 00:34 45.05761 7.69408 34920 ft 452 kts 147°
2026-05-06 00:34 45.01074 7.75356 34925 ft 453 kts 147°
2026-05-06 00:35 44.96447 7.81457 34920 ft 462 kts 139°
2026-05-06 00:35 44.94566 7.85201 34920 ft 476 kts 127°
2026-05-06 00:35 44.93302 7.89585 34917 ft 492 kts 111°
2026-05-06 00:35 44.92844 7.94435 34921 ft 505 kts 97°
2026-05-06 00:36 44.92848 7.99410 34918 ft 508 kts 94°
2026-05-06 00:36 44.93261 8.09349 34918 ft 511 kts 91°
2026-05-06 00:37 44.93769 8.19333 34512 ft 503 kts 92°
2026-05-06 00:37 44.93993 8.24146 34457 ft 479 kts 93°
2026-05-06 00:37 44.94169 8.28738 34382 ft 462 kts 96°
2026-05-06 00:37 44.93990 8.33215 33885 ft 450 kts 108°
2026-05-06 00:38 44.93277 8.37405 33539 ft 428 kts 119°
2026-05-06 00:38 44.92103 8.41129 33212 ft 403 kts 131°
2026-05-06 00:38 44.90579 8.44260 32919 ft 381 kts 141°
2026-05-06 00:38 44.88762 8.46847 32496 ft 363 kts 152°
2026-05-06 00:39 44.86741 8.48856 32010 ft 348 kts 161°
2026-05-06 00:39 44.84594 8.50300 31558 ft 336 kts 169°
2026-05-06 00:39 44.82389 8.51134 31090 ft 320 kts 184°
2026-05-06 00:39 44.80254 8.50812 30604 ft 304 kts 204°
2026-05-06 00:40 44.78480 8.49324 30150 ft 297 kts 224°
2026-05-06 00:40 44.77302 8.46907 29464 ft 308 kts 244°
2026-05-06 00:40 44.76915 8.43882 28835 ft 325 kts 263°
2026-05-06 00:40 44.77099 8.40679 28361 ft 330 kts 268°
2026-05-06 00:41 44.77368 8.37457 27897 ft 330 kts 268°
2026-05-06 00:41 44.77643 8.34256 27522 ft 329 kts 268°
2026-05-06 00:41 44.77914 8.31111 27135 ft 327 kts 268°
2026-05-06 00:41 44.78188 8.27938 26731 ft 326 kts 268°
2026-05-06 00:42 44.78460 8.24772 26330 ft 325 kts 268°
2026-05-06 00:42 44.78731 8.21609 25908 ft 325 kts 268°
2026-05-06 00:42 44.79119 8.18447 25478 ft 335 kts 278°
2026-05-06 00:42 44.79920 8.15339 25257 ft 346 kts 284°
2026-05-06 00:43 44.81100 8.12235 25148 ft 376 kts 296°
2026-05-06 00:43 44.82968 8.09424 25040 ft 411 kts 315°
2026-05-06 00:43 44.85576 8.07449 24936 ft 444 kts 335°
2026-05-06 00:43 44.88701 8.06634 24831 ft 470 kts 354°
2026-05-06 00:44 44.92019 8.07133 24745 ft 489 kts 12°
2026-05-06 00:44 44.95174 8.08899 24628 ft 499 kts 29°
2026-05-06 00:44 44.97914 8.11776 24495 ft 484 kts 46°
2026-05-06 00:44 44.99979 8.15421 23916 ft 470 kts 62°
2026-05-06 00:45 45.01209 8.19620 23264 ft 455 kts 82°
2026-05-06 00:45 45.01446 8.24028 23123 ft 450 kts 100°
2026-05-06 00:45 45.00757 8.28304 22996 ft 445 kts 117°
2026-05-06 00:45 44.99240 8.32041 22859 ft 432 kts 134°
2026-05-06 00:46 44.97314 8.35256 22727 ft 432 kts 133°
2026-05-06 00:46 44.95853 8.39034 22598 ft 446 kts 116°
2026-05-06 00:46 44.95204 8.43373 22411 ft 460 kts 101°
2026-05-06 00:46 44.95076 8.47857 21842 ft 464 kts 97°
2026-05-06 00:47 44.95068 8.52394 20752 ft 460 kts 95°
2026-05-06 00:47 44.95126 8.56896 19632 ft 456 kts 94°
2026-05-06 00:47 44.95238 8.61335 18700 ft 449 kts 92°
2026-05-06 00:47 44.95380 8.65722 17652 ft 445 kts 92°
2026-05-06 00:48 44.95534 8.70045 16697 ft 436 kts 92°
2026-05-06 00:48 44.95685 8.74242 15776 ft 429 kts 91°
2026-05-06 00:48 44.95837 8.78423 14811 ft 423 kts 91°
2026-05-06 00:48 44.96005 8.82519 13855 ft 412 kts 88°
2026-05-06 00:49 44.96659 8.86448 12444 ft 413 kts 69°
2026-05-06 00:49 44.98202 8.89796 11663 ft 397 kts 47°
2026-05-06 00:49 45.00284 8.92168 11255 ft 371 kts 30°
2026-05-06 00:49 45.02596 8.93441 10862 ft 347 kts
2026-05-06 00:50 45.04917 8.93562 10628 ft 321 kts 354°
2026-05-06 00:50 45.07046 8.93169 10499 ft 297 kts 346°
2026-05-06 00:50 45.08991 8.92537 10403 ft 277 kts 342°
2026-05-06 00:50 45.10856 8.91791 10226 ft 283 kts 341°
2026-05-06 00:51 45.12742 8.90986 9685 ft 291 kts 340°
2026-05-06 00:51 45.14702 8.90152 9173 ft 295 kts 341°
2026-05-06 00:51 45.16680 8.89336 8695 ft 296 kts 342°
2026-05-06 00:51 45.18667 8.88542 8223 ft 297 kts 342°
2026-05-06 00:52 45.20652 8.87768 7855 ft 293 kts 343°
2026-05-06 00:52 45.22615 8.87012 7450 ft 292 kts 343°
2026-05-06 00:52 45.24542 8.86275 7009 ft 291 kts 344°
2026-05-06 00:52 45.26483 8.85532 6712 ft 286 kts 344°
2026-05-06 00:53 45.28401 8.84797 6368 ft 283 kts 345°
2026-05-06 00:53 45.30302 8.84068 5898 ft 283 kts 344°
2026-05-06 00:53 45.32206 8.83336 5458 ft 283 kts 344°
2026-05-06 00:53 45.34067 8.82620 5231 ft 269 kts 345°
2026-05-06 00:54 45.35812 8.81948 4996 ft 251 kts 345°
2026-05-06 00:54 45.37448 8.81316 4768 ft 237 kts 345°
2026-05-06 00:54 45.39001 8.80716 4589 ft 224 kts 344°
2026-05-06 00:54 45.40455 8.80153 4389 ft 215 kts 345°
2026-05-06 00:55 45.41888 8.79609 4078 ft 213 kts 346°
2026-05-06 00:55 45.43360 8.79116 3766 ft 220 kts 346°
2026-05-06 00:55 45.44848 8.78461 3271 ft 222 kts 345°
2026-05-06 00:55 45.46339 8.77973 2926 ft 217 kts 350°
2026-05-06 00:56 45.47798 8.77570 2533 ft 208 kts 351°
2026-05-06 00:56 45.49178 8.77192 2450 ft 205 kts 350°
2026-05-06 00:56 45.50601 8.76790 2457 ft 211 kts 350°
2026-05-06 00:56 45.52046 8.76379 2443 ft 212 kts 351°
2026-05-06 00:57 45.53413 8.75994 2389 ft 190 kts 351°
2026-05-06 00:57 45.54658 8.75652 2181 ft 176 kts 351°
2026-05-06 00:57 45.55817 8.75335 1933 ft 166 kts 352°
2026-05-06 00:57 45.56944 8.75026 1721 ft 164 kts 352°
2026-05-06 00:58 45.58060 8.74720 1460 ft 161 kts 350°
2026-05-06 00:58 45.59127 8.74420 1266 ft 151 kts 350°
2026-05-06 00:58 45.60135 8.74154 1057 ft 141 kts 348°
2026-05-06 00:58 45.61055 8.73891 871 ft 135 kts 348°
2026-05-06 00:59 45.61963 8.73642 752 ft 128 kts 349°
2026-05-06 00:59 45.62683 8.73443 753 ft 71 kts 349°
2026-05-06 00:59 45.63049 8.73327 745 ft 42 kts 335°
2026-05-06 00:59 45.63252 8.73088 753 ft 35 kts 306°
2026-05-06 01:00 45.63341 8.72898 753 ft 19 kts 304°
2026-05-06 01:00 45.63411 8.72741 755 ft 18 kts 289°
2026-05-06 01:00 45.63398 8.72574 755 ft 17 kts 258°
2026-05-06 01:00 45.63376 8.72415 753 ft 16 kts 259°
2026-05-06 01:01 45.63353 8.72246 752 ft 18 kts 259°
2026-05-06 01:01 45.63329 8.72073 752 ft 18 kts 259°
2026-05-06 01:01 45.63304 8.71877 756 ft 20 kts 259°
2026-05-06 01:01 45.63274 8.71691 757 ft 18 kts 237°
2026-05-06 01:02 45.63201 8.71603 753 ft 13 kts 237°
2026-05-06 01:02 45.63176 8.71553 753 ft 0 kts 237°